Starlink 11227

operational
NORAD ID: 60303 Int'l Des: 2024-133 Owner: SPXS Country: US Constellation: starlink
LEOCIRCULAR

Über Starlink 11227

Beschreibung wird geladen...

Live-Position

3D-Globus wird geladen...

Nächste Überflüge

Höhenverlauf

Altitude vs Time

uPlot chart will show altitude changes over time

Zweizeiliger Elementsatz

1 60303U 24133C 25258.09574479 -.00000458 00000-0 10787-5 0 9998
2 60303 53.1579 291.9446 0000966 77.3500 282.7625 15.69706533 66236
Epoch: 15. Sept. 2025 • Age: 27 hours

Aktueller Status

Höhe 362.5 km
Geschwindigkeit 7.69 km/s
Subsatellitenpunkt -10.10°S, 163°W
Startdatum 28. Juli 2024
Alter 1.1 years
Typ internet

Technische Details

Klassifizierung Payload
Masse 960.00 kg
Trockenmasse 910.00 kg
Gesamtmasse 960.00 kg
Länge 0.30 m
Durchmesser 4.10 m
Spannweite 29.00 m
Form Box + pan
Hersteller SPXS
Bus-Typ Starlink V2MD
Phasenstatus In Orbit
Besitzer/Staat SPXS/US

Große Konstellationen

Loading constellations...